When you browse on this site, cookies collect data to enhance your experience and personalize the content and advertising you see.
Visit our Privacy Policy to learn more. By continuing to use the site, you agree to this use of cookies and data.
  • In Österreich
  • Länderverzeichnis
  • Für 7 Tage
  • Wassertemperatur
  • Satellitenkarten
  • Wetterkarte
  • News
  • Widgets
  • user-avatar
    Anmelden

    Stündliche Wetter Rakowo

    Heute, 22 April, Montag

    Zeit Temperatur Niederschläge Wind Luftdruck Luftfeuchtigkeit
    00:00 +9°C° 0 mm 2 m/S 762 mmHg 54%
    01:00 +8°C° 0 mm 2 m/S 762 mmHg 57%
    02:00 +7°C° 0 mm 2 m/S 762 mmHg 63%
    03:00 +7°C° 0 mm 2 m/S 762 mmHg 69%
    04:00 +5°C° 0 mm 3 m/S 762 mmHg 75%
    05:00 +7°C° 0 mm 3 m/S 762 mmHg 72%
    06:00 +7°C° 0 mm 4 m/S 762 mmHg 69%
    07:00 +8°C° 0 mm 4 m/S 763 mmHg 62%
    08:00 +11°C° 0 mm 4 m/S 762 mmHg 57%
    09:00 +12°C° 0 mm 5 m/S 762 mmHg 51%
    10:00 +14°C° 0 mm 5 m/S 762 mmHg 46%
    11:00 +15°C° 0 mm 6 m/S 762 mmHg 44%
    12:00 +16°C° 0 mm 6 m/S 762 mmHg 43%
    13:00 +17°C° 0 mm 7 m/S 762 mmHg 41%
    14:00 +17°C° 0 mm 7 m/S 761 mmHg 42%
    15:00 +17°C° 0 mm 7 m/S 761 mmHg 43%
    16:00 +17°C° 0 mm 7 m/S 760 mmHg 44%
    17:00 +16°C° 0 mm 6 m/S 760 mmHg 49%
    18:00 +15°C° 0 mm 5 m/S 760 mmHg 55%
    19:00 +14°C° 0 mm 4 m/S 760 mmHg 60%
    20:00 +14°C° 0 mm 5 m/S 760 mmHg 60%
    21:00 +13°C° 0 mm 5 m/S 760 mmHg 59%
    22:00 +13°C° 0 mm 6 m/S 761 mmHg 59%
    23:00 +11°C° 0 mm 6 m/S 761 mmHg 58%

    Morgen, 23 April, Dienstag

    Zeit Temperatur Niederschläge Wind Luftdruck Luftfeuchtigkeit
    00:00 +11°C° 0 mm 6 m/S 761 mmHg 57%
    01:00 +10°C° 0 mm 6 m/S 760 mmHg 56%
    02:00 +9°C° 0 mm 6 m/S 760 mmHg 56%
    03:00 +9°C° 0 mm 6 m/S 760 mmHg 56%
    04:00 +8°C° 0 mm 7 m/S 759 mmHg 55%
    05:00 +9°C° 0 mm 7 m/S 759 mmHg 55%
    06:00 +9°C° 0 mm 7 m/S 759 mmHg 54%
    07:00 +10°C° 0 mm 8 m/S 759 mmHg 54%
    08:00 +12°C° 0 mm 8 m/S 759 mmHg 51%
    09:00 +13°C° 0 mm 9 m/S 758 mmHg 47%
    10:00 +16°C° 0 mm 9 m/S 758 mmHg 44%
    11:00 +16°C° 0 mm 9 m/S 757 mmHg 43%
    12:00 +17°C° 0 mm 9 m/S 757 mmHg 43%
    13:00 +18°C° 0 mm 9 m/S 757 mmHg 42%
    14:00 +18°C° 0.1 mm 9 m/S 756 mmHg 48%
    15:00 +17°C° 0.1 mm 8 m/S 756 mmHg 55%
    16:00 +16°C° 0.1 mm 7 m/S 756 mmHg 61%
    17:00 +16°C° 0.1 mm 7 m/S 755 mmHg 61%
    18:00 +15°C° 0.1 mm 7 m/S 755 mmHg 61%
    19:00 +15°C° 0.1 mm 7 m/S 755 mmHg 61%
    20:00 +15°C° 0 mm 7 m/S 755 mmHg 61%
    21:00 +15°C° 0 mm 7 m/S 755 mmHg 61%
    22:00 +14°C° 0 mm 6 m/S 755 mmHg 61%
    23:00 +14°C° 0 mm 6 m/S 755 mmHg 63%

    übermorgen, 24 April, Mittwoch

    Zeit Temperatur Niederschläge Wind Luftdruck Luftfeuchtigkeit
    00:00 +14°C° 0 mm 6 m/S 755 mmHg 65%
    01:00 +13°C° 0 mm 6 m/S 754 mmHg 66%
    02:00 +13°C° 0 mm 6 m/S 754 mmHg 66%
    03:00 +13°C° 0 mm 6 m/S 754 mmHg 66%
    04:00 +13°C° 0 mm 6 m/S 754 mmHg 66%
    05:00 +13°C° 0 mm 6 m/S 754 mmHg 65%
    06:00 +14°C° 0 mm 6 m/S 754 mmHg 64%
    07:00 +14°C° 0 mm 7 m/S 755 mmHg 63%
    08:00 +15°C° 0 mm 7 m/S 755 mmHg 60%
    09:00 +17°C° 0 mm 7 m/S 755 mmHg 57%
    10:00 +18°C° 0 mm 7 m/S 755 mmHg 54%
    11:00 +19°C° 0 mm 6 m/S 755 mmHg 55%
    12:00 +20°C° 0 mm 6 m/S 755 mmHg 55%
    13:00 +20°C° 0 mm 6 m/S 755 mmHg 55%
    14:00 +20°C° 0 mm 6 m/S 755 mmHg 55%
    15:00 +21°C° 0 mm 5 m/S 755 mmHg 54%
    16:00 +21°C° 0 mm 5 m/S 755 mmHg 53%
    17:00 +20°C° 0 mm 5 m/S 755 mmHg 58%
    18:00 +19°C° 0 mm 4 m/S 755 mmHg 63%
    19:00 +18°C° 0 mm 4 m/S 755 mmHg 68%
    20:00 +17°C° 0 mm 4 m/S 755 mmHg 73%
    21:00 +15°C° 0 mm 4 m/S 755 mmHg 77%
    22:00 +16°C° 0 mm 3 m/S 755 mmHg 81%
    23:00 +14°C° 0 mm 3 m/S 755 mmHg 83%

    25 April, Donnerstag

    Zeit Temperatur Niederschläge Wind Luftdruck Luftfeuchtigkeit
    00:00 +14°C° 0 mm 3 m/S 756 mmHg 86%
    01:00 +13°C° 0 mm 3 m/S 756 mmHg 88%
    02:00 +13°C° 0 mm 3 m/S 756 mmHg 90%
    03:00 +12°C° 0 mm 3 m/S 756 mmHg 92%
    04:00 +13°C° 0 mm 2 m/S 756 mmHg 94%
    05:00 +14°C° 0 mm 2 m/S 756 mmHg 90%
    06:00 +15°C° 0 mm 2 m/S 756 mmHg 85%
    07:00 +16°C° 0 mm 2 m/S 757 mmHg 81%
    08:00 +18°C° 0 mm 2 m/S 757 mmHg 73%
    09:00 +20°C° 0 mm 2 m/S 757 mmHg 64%
    10:00 +24°C° 0 mm 2 m/S 757 mmHg 56%
    11:00 +25°C° 0 mm 3 m/S 756 mmHg 52%
    12:00 +26°C° 0 mm 3 m/S 756 mmHg 49%
    13:00 +27°C° 0 mm 3 m/S 756 mmHg 45%
    14:00 +27°C° 0 mm 3 m/S 756 mmHg 45%
    15:00 +27°C° 0 mm 3 m/S 756 mmHg 46%
    16:00 +27°C° 0 mm 4 m/S 755 mmHg 46%
    17:00 +25°C° 0 mm 3 m/S 755 mmHg 53%
    18:00 +24°C° 0 mm 3 m/S 755 mmHg 60%
    19:00 +21°C° 0 mm 2 m/S 755 mmHg 68%
    20:00 +20°C° 0 mm 2 m/S 755 mmHg 72%
    21:00 +19°C° 0 mm 2 m/S 755 mmHg 77%
    22:00 +18°C° 0 mm 2 m/S 755 mmHg 81%
    23:00 +17°C° 0 mm 2 m/S 755 mmHg 84%

    26 April, Freitag

    Zeit Temperatur Niederschläge Wind Luftdruck Luftfeuchtigkeit
    00:00 +17°C° 0 mm 2 m/S 754 mmHg 86%
    01:00 +16°C° 0 mm 2 m/S 754 mmHg 88%
    02:00 +16°C° 0.1 mm 2 m/S 754 mmHg 90%
    03:00 +15°C° 0.1 mm 1 m/S 754 mmHg 92%
    04:00 +15°C° 0.1 mm 1 m/S 753 mmHg 94%
    05:00 +16°C° 0.1 mm 1 m/S 753 mmHg 90%
    06:00 +18°C° 0.1 mm 1 m/S 753 mmHg 85%
    07:00 +19°C° 0.1 mm 1 m/S 753 mmHg 81%
    08:00 +20°C° 0.1 mm 2 m/S 753 mmHg 74%
    09:00 +23°C° 0.1 mm 2 m/S 753 mmHg 66%
    10:00 +24°C° 0.1 mm 3 m/S 754 mmHg 59%
    11:00 +23°C° 0.9 mm 4 m/S 754 mmHg 61%
    12:00 +23°C° 0.9 mm 4 m/S 754 mmHg 62%
    13:00 +23°C° 0.9 mm 5 m/S 754 mmHg 63%
    14:00 +21°C° 0.1 mm 5 m/S 755 mmHg 68%
    15:00 +19°C° 0.1 mm 5 m/S 755 mmHg 72%
    16:00 +17°C° 0.1 mm 5 m/S 755 mmHg 76%
    17:00 +16°C° 0.1 mm 5 m/S 756 mmHg 78%
    18:00 +15°C° 0.1 mm 5 m/S 756 mmHg 79%
    19:00 +14°C° 0.1 mm 4 m/S 757 mmHg 80%
    20:00 +14°C° 0 mm 5 m/S 757 mmHg 80%
    21:00 +14°C° 0 mm 5 m/S 758 mmHg 79%
    22:00 +13°C° 0 mm 5 m/S 758 mmHg 79%
    23:00 +13°C° 0 mm 5 m/S 758 mmHg 79%

    27 April, Samstag

    Zeit Temperatur Niederschläge Wind Luftdruck Luftfeuchtigkeit
    00:00 +12°C° 0 mm 4 m/S 758 mmHg 79%
    01:00 +11°C° 0 mm 4 m/S 759 mmHg 80%
    02:00 +11°C° 0 mm 3 m/S 759 mmHg 78%
    03:00 +11°C° 0 mm 3 m/S 760 mmHg 77%
    04:00 +11°C° 0 mm 3 m/S 760 mmHg 76%
    05:00 +12°C° 0 mm 3 m/S 760 mmHg 75%
    06:00 +12°C° 0 mm 4 m/S 760 mmHg 73%
    07:00 +12°C° 0 mm 4 m/S 761 mmHg 72%
    08:00 +14°C° 0 mm 4 m/S 761 mmHg 66%
    09:00 +15°C° 0 mm 4 m/S 761 mmHg 59%
    10:00 +17°C° 0 mm 4 m/S 761 mmHg 53%
    11:00 +18°C° 0 mm 4 m/S 761 mmHg 50%
    12:00 +19°C° 0 mm 5 m/S 761 mmHg 48%
    13:00 +20°C° 0 mm 5 m/S 761 mmHg 45%
    14:00 +20°C° 0 mm 5 m/S 761 mmHg 47%
    15:00 +19°C° 0 mm 5 m/S 762 mmHg 49%
    16:00 +19°C° 0 mm 5 m/S 762 mmHg 50%
    17:00 +16°C° 0 mm 5 m/S 762 mmHg 55%
    18:00 +15°C° 0 mm 4 m/S 762 mmHg 61%
    19:00 +13°C° 0 mm 3 m/S 763 mmHg 66%
    20:00 +13°C° 0 mm 2 m/S 763 mmHg 71%
    21:00 +12°C° 0 mm 2 m/S 763 mmHg 75%
    22:00 +10°C° 0 mm 2 m/S 764 mmHg 80%
    23:00 +10°C° 0 mm 2 m/S 764 mmHg 82%
    Mehr zeigen